Orbital elements: 2009 DK12 Epoch 2009 Feb. 18.0 TT = JDT 2454880.5 MPC M 323.28457 (2000.0) P Q n 0.12380266 Peri. 239.98238 +0.28412264 +0.71407049 a 3.9870291 Node 61.56533 -0.41250091 +0.69344840 e 0.4435892 Incl. 46.68590 -0.86551564 -0.09608665 P 7.96 H 15.5 G 0.15 From 23 observations 2009 Feb. 20-23.